Regional Weather Roundup
Issued by NWS Upton, NY

Current Version | Previous Version | Graphics & Text | Print | Product List | Glossary Off
Versions: 1 2 3 4 5 6 7 8 9 10 11 12 13 14 15 16 17 18 19 20 21 22 23 24 25 26 27

000
ASUS41 KOKX 231309
RWROKX

REGIONAL WEATHER ROUNDUP
NATIONAL WEATHER SERVICE NEW YORK NY
900 AM EDT TUE MAY 23 2017

NOTE: "FAIR" INDICATES FEW OR NO CLOUDS BELOW 12,000 FEET WITH NO
SIGNIFICANT WEATHER AND/OR OBSTRUCTIONS TO VISIBILITY.

NYZ071-072-176-178-NJZ106-104-231400-
NEW YORK CITY METRO AREA

CITY           SKY/WX    TMP DP  RH WIND       PRES   REMARKS
Central Park   CLOUDY    61  48  62 VRB7      29.98S
Wall St Helipt CLOUDY    61  50  67 E8        29.97R
Bronx Bot Gard   N/A     61  46  59 CALM      29.97F
LaGuardia APRT CLOUDY    61  50  67 NE8       29.95S
Kennedy INTL   CLOUDY    62  51  67 NE7       29.96S
Breezy Point     N/A     59 N/A N/A NE8G14      N/A
Newark/Liberty CLOUDY    62  52  69 N8        29.96R
Teterboro      CLOUDY    61  51  70 NE7       29.95S
$$

NYZ177-179-078>081-231400-
LONG ISLAND NEW YORK

CITY           SKY/WX    TMP DP  RH WIND       PRES   REMARKS
Jones Beach      N/A     59 N/A N/A N10         N/A
Matinecock PT    N/A     57 N/A N/A E7          N/A
Farmingdale    CLOUDY    59  48  67 NE12      29.95F
MacArthur/ISP  PTSUNNY   60  50  69 N9        29.94S
Shirley        CLOUDY    60  52  74 N9        29.94F
Mt Sinai Harb    N/A     57 N/A N/A N6          N/A
Westhampton    MOSUNNY   61  49  64 N13       29.95S
East Hampton     N/A     58  52  81 N5        29.93S
Montauk          N/A     58  54  86 NW7       29.95S
$$

NYZ052-065-067-231400-
HUDSON VALLEY

CITY           SKY/WX    TMP DP  RH WIND       PRES   REMARKS
White Plains   CLOUDY    60  50  69 N5        29.95S
Larchmont Harb   N/A     57 N/A N/A NE5         N/A
Croton O-T Hud   N/A     57 N/A N/A W3          N/A
Newburgh       PTSUNNY   57  54  88 CALM      29.98
Montgomery     PTSUNNY   58  53  84 CALM      29.96S
Poughkeepsie   CLOUDY    56  49  77 N5        29.96S
Albany         PTSUNNY   59  47  64 N3        29.97S
$$

NJZ001-105-106-008-010-013-015-019>022-104-231400-
NEW JERSEY

CITY           SKY/WX    TMP DP  RH WIND       PRES   REMARKS
Newark/Liberty CLOUDY    62  52  69 N8        29.96R
Teterboro      CLOUDY    61  51  70 NE7       29.95S
Caldwell       CLOUDY    62  53  72 CALM      29.97S
Somerville     CLOUDY    61  55  81 CALM      29.95S
Linden           N/A     62  52  70 NE5       29.96S
Perth Amboy      N/A     59 N/A N/A N5          N/A
Sussex         CLOUDY    58  52  80 CALM      29.97F
Andover          N/A     57  51  80 CALM      29.97S
Trenton        CLOUDY    60  55  83 NE6       29.95S
Millville      PTSUNNY   62  59  90 NE7       29.95R
Atlantic City  CLOUDY    62  58  86 E8        29.95S
Wrightstown    CLOUDY    61  57  88 N10       29.93F
Toms River     CLOUDY    62  57  83 NE9       29.96S
Belmar         CLOUDY    60  54  80 NE7       29.97R
$$

PAZ047>061-062-071-231400-
EASTERN PENNSYLVANIA

CITY           SKY/WX    TMP DP  RH WIND       PRES   REMARKS
Philadelphia   CLOUDY    63  54  72 NE10G18   29.96S
Allentown      CLOUDY    58  50  75 NE3       29.97S
Scranton       CLOUDY    58  46  64 CALM      29.96F
$$

CTZ002-004>006-009-010-012-RIZ004-006-007-MAZ004-011-015-231400-
SOUTHERN NEW ENGLAND
 IN CT

CITY           SKY/WX    TMP DP  RH WIND       PRES   REMARKS
Bradley INTL   CLOUDY    57  52  83 N5        29.96S
Hartford       CLOUDY    57  52  83 NE6       29.96S
Danbury        CLOUDY    58  50  75 E3        29.97S
Wtrbury/Oxford PTSUNNY   55  45  67 NE9       29.97S
Bridgeport     CLOUDY    62  49  62 N7        29.96S
Meriden        CLOUDY    59  50  72 N7        29.95S
New Haven      PTSUNNY   59  51  75 N5        29.95S
Chester          N/A     59  54  82 VRB7      29.95R
Groton         CLOUDY    61  52  72 N9        29.93S
Wilimantic     CLOUDY    59  51  75 N7        29.96S

 IN RI

CITY           SKY/WX    TMP DP  RH WIND       PRES   REMARKS
Providence     PTSUNNY   60  54  80 N9        29.94S
Block Island   CLOUDY    57  55  93 N6        29.94S
Westerly       CLOUDY    63  54  72 N6        29.94S
 IN MA

CITY           SKY/WX    TMP DP  RH WIND       PRES   REMARKS
Boston         CLOUDY    59  52  77 NW9       29.94S
Worcester      CLOUDY    56  46  69 N8        29.95R
Westfield      CLOUDY    57  53  86 CALM      29.95F
Provincetown   CLOUDY    53  52  96 NW12      29.93S
Nantucket      CLOUDY    58  54  86 N12       29.91S
$$

ANZ330-335-338-340-345-350-353-355-231400-
COASTAL MARINE OBSERVATIONS


STATION/POSITION TIME  SKY/WX   TEMP    WIND        PRES    VSBY  WAVE
                                AIR SEA DIR/SP/G                  HT/PER
                 (UTC)          (F)     (DEG/KT/KT) (MB)    (MI)  (FT/S)
NY HARB ENTRANCE 1150            58 57   10/ 10/ 12 1014.1          2/ 6
20 S FIRE ISLAND 1250            56 55   10/ 12/ 14 1013.3          3/ 5
GREAT SOUTH BAY  1230            60 64   20/  8/ 14   N/A
23 SSW MONTAUK P 1150            55 54              1013.7          2/ 6
15 E BARNEGAT LI 1230               57                N/A           3/ 7
HUDSON CANYON    1150            54 54   20/ 14/ 17 1013.1          4/ 7
KINGS POINT      1236            58 57   60/  5/  7 1014.4
EXECUTION ROCKS  1230            58                   N/A
CENTRAL LI SOUND 1200            56     340/  4/  6   N/A           0
EASTERN LI SOUND NOT AVBL
ROBBINS REEF     1236            60     360/  7/  9 1014.9
$$


>>>>>>>>>>>>>>>>>>>>>>>>>>>> KEY <<<<<<<<<<<<<<<<<<<<<<<<<<<
>                                                          <
>     SKY/WX - Sky Condition/Present Weather               <
>     TMP    - Temperature in Fahrenheit                   <
>     DP     - Dew Point in Fahrenheit                     <
>     RH     - Relative Humidity in Percent                <
>     WIND   - Direction (from) and Speed in MPH           <
>     PRES   - Mean Sea Level Pressure (inches of Hg)      <
>     WCI    - Wind Chill Index                            <
>     VSB    - VISIBILITY IN MILES                         <
>     HX     - HEAT INDEX                                  <
>     TC     - TEMPERATURE IN CELSIUS                      <
>     VRB    - VARIABLE WIND DIRECTION                     <
>                                                          <
>>>>>>>>>>>>>>>>>>>>>>>>>>>> KEY <<<<<<<<<<<<<<<<<<<<<<<<<<<




USA.gov is the U.S. government's official web portal to all federal, state and local government web resources and services.